QPF
0.00 0.00 0.00 0.00 0.00 0.00 0.00 0.00 0.00 0.00 0.00 0.00 0.00 0.00 0.00 0.00 0.00 0.00 0.00 0.00 0.00 0.00 0.03 0.02 0.05 0.04 0.09 0.37 0.06 0.01 0.02 0.07 0.02 0.02 0.02 0.00 0.00 0.00 0.00 0.00 0.00 0.00 0.00 0.00 0.00
0.00 0.00 0.00 0.00 0.00 0.00 0.00 0.00 0.00 0.00 0.00 0.00 0.00 0.00 0.00 0.00 0.00 0.00 0.00 0.00 0.00 0.00 0.01 0.13 0.09 0.05 0.07 0.07 0.01 0.00 0.01 0.01 0.00 0.00 0.00 0.00 0.00 0.00 0.00 0.00 0.00 0.00 0.00 0.00 0.00
0.00 0.00 0.00 0.00 0.00 0.00 0.00 0.00 0.00 0.00 0.00 0.00 0.00 0.00 0.00 0.00 0.00 0.00 0.00 0.00 0.00 0.00 0.00 0.06 0.04 0.03 0.11 0.04 0.00 0.00 0.00 0.00 0.00 0.00 0.00 0.00 0.00 0.00 0.00 0.00 0.00 0.00 0.00 0.00 0.00
0.00 0.00 0.00 0.00 0.00 0.00 0.00 0.00 0.00 0.00 0.00 0.00 0.00 0.00 0.00 0.00 0.00 0.00 0.00 0.00 0.00 0.00 0.00 0.01 0.01 0.00 0.03 0.02 0.00 0.00 0.00 0.00 0.00 0.00 0.00 0.00 0.00 0.00 0.00 0.00 0.00 0.00 0.00 0.00 0.00
0.00 0.00 0.00 0.00 0.00 0.00 0.00 0.00 0.00 0.00 0.00 0.00 0.00 0.00 0.00 0.00 0.00 0.00 0.00 0.00 0.00 0.00 0.00 0.00 0.00 0.00 0.00 0.00 0.00 0.00 0.00 0.00 0.00 0.00 0.02 0.05 0.00 0.00 0.00 0.00 0.00 0.00 0.00 0.00 0.00
0.00 0.00 0.00 0.00 0.00 0.00 0.00 0.00 0.00 0.00 0.00 0.00 0.00 0.00 0.00 0.00 0.00 0.00 0.00 0.00 0.00 0.00 0.00 0.00 0.00 0.00 0.00 0.00 0.00 0.00 0.00 0.02 0.10 0.09 0.07 0.03 0.01 0.00 0.00 0.00 0.00 0.00 0.00 0.00 0.00
0.00 0.00 0.00 0.00 0.00 0.00 0.00 0.00 0.00 0.00 0.00 0.00 0.00 0.00 0.00 0.00 0.00 0.00 0.00 0.00 0.00 0.00 0.00 0.00 0.00 0.00 0.00 0.00 0.00 0.00 0.02 0.09 0.06 0.37 0.17 0.01 0.00 0.00 0.00 0.00 0.00 0.00 0.00 0.00 0.00
0.00 0.00 0.00 0.00 0.00 0.00 0.00 0.00 0.00 0.00 0.00 0.00 0.00 0.00 0.00 0.00 0.00 0.00 0.00 0.00 0.00 0.00 0.00 0.00 0.00 0.00 0.00 0.00 0.00 0.00 0.01 0.04 0.02 0.09 0.04 0.01 0.01 0.00 0.00 0.00 0.00 0.00 0.00 0.00 0.00
0.00 0.00 0.00 0.00 0.00 0.00 0.00 0.00 0.00 0.00 0.00 0.00 0.00 0.00 0.00 0.00 0.00 0.00 0.00 0.00 0.00 0.00 0.00 0.00 0.00 0.00 0.00 0.00 0.00 0.00 0.00 0.01 0.02 0.01 0.05 0.10 0.05 0.00 0.00 0.00 0.00 0.00 0.00 0.00 0.00
0.00 0.00 0.00 0.00 0.00 0.00 0.00 0.00 0.00 0.00 0.00 0.00 0.00 0.00 0.00 0.00 0.00 0.00 0.00 0.00 0.00 0.00 0.00 0.00 0.00 0.00 0.00 0.00 0.00 0.00 0.00 0.00 0.00 0.00 0.00 0.01 0.00 0.00 0.00 0.00 0.00 0.00 0.00 0.00 0.00
0.00 0.00 0.00 0.00 0.00 0.00 0.00 0.00 0.00 0.00 0.00 0.00 0.00 0.00 0.00 0.00 0.00 0.00 0.00 0.00 0.00 0.00 0.00 0.00 0.00 0.00 0.00 0.00 0.00 0.00 0.00 0.00 0.00 0.00 0.00 0.00 0.00 0.00 0.00 0.00 0.00 0.00 0.00 0.00 0.00
0.00 0.00 0.00 0.00 0.00 0.00 0.00 0.00 0.00 0.00 0.00 0.00 0.00 0.00 0.00 0.00 0.00 0.00 0.00 0.00 0.00 0.00 0.00 0.00 0.00 0.00 0.00 0.00 0.00 0.00 0.00 0.00 0.00 0.00 0.00 0.00 0.00 0.00 0.00 0.00 0.00 0.00 0.00 0.00 0.00
0.00 0.00 0.00 0.00 0.00 0.00 0.00 0.00 0.00 0.00 0.00 0.00 0.00 0.00 0.00 0.00 0.00 0.00 0.00 0.00 0.00 0.00 0.00 0.00 0.00 0.00 0.00 0.00 0.00 0.00 0.00 0.00 0.00 0.00 0.00 0.00 0.00 0.00 0.00 0.00 0.00 0.00 0.00 0.00 0.00
0.00 0.00 0.00 0.00 0.00 0.00 0.00 0.00 0.00 0.00 0.00 0.00 0.00 0.00 0.00 0.00 0.00 0.00 0.00 0.00 0.00 0.00 0.00 0.00 0.00 0.00 0.00 0.00 0.00 0.00 0.00 0.00 0.00 0.00 0.00 0.00 0.00 0.00 0.00 0.00 0.00 0.00 0.00 0.00 0.00
0.00 0.00 0.00 0.00 0.00 0.00 0.00 0.00 0.00 0.00 0.00 0.00 0.00 0.00 0.00 0.00 0.00 0.00 0.00 0.00 0.00 0.00 0.00 0.00 0.00 0.00 0.00 0.00 0.00 0.00 0.00 0.00 0.00 0.00 0.00 0.00 0.00 0.00 0.00 0.00 0.00 0.00 0.00 0.00 0.00
0.00 0.00 0.00 0.00 0.00 0.00 0.00 0.00 0.00 0.00 0.00 0.00 0.00 0.00 0.00 0.00 0.00 0.00 0.00 0.00 0.00 0.00 0.00 0.00 0.00 0.00 0.00 0.00 0.00 0.00 0.00 0.00 0.00 0.00 0.00 0.00 0.00 0.00 0.00 0.00 0.00 0.00 0.00 0.00 0.00
0.00 0.00 0.00 0.00 0.00 0.00 0.00 0.00 0.00 0.00 0.00 0.00 0.00 0.00 0.00 0.00 0.00 0.00 0.00 0.00 0.00 0.00 0.00 0.00 0.00 0.00 0.00 0.00 0.00 0.00 0.00 0.00 0.00 0.00 0.00 0.00 0.00 0.00 0.00 0.00 0.00 0.00 0.00 0.00 0.00
0.00 0.00 0.00 0.00 0.00 0.00 0.00 0.00 0.00 0.00 0.00 0.00 0.00 0.00 0.00 0.00 0.00 0.00 0.00 0.00 0.00 0.00 0.00 0.00 0.00 0.00 0.00 0.00 0.00 0.00 0.00 0.00 0.00 0.00 0.00 0.00 0.00 0.00 0.00 0.00 0.00 0.00 0.00 0.00 0.00
0.00 0.00 0.00 0.00 0.00 0.00 0.00 0.00 0.00 0.00 0.00 0.00 0.00 0.00 0.00 0.00 0.00 0.00 0.00 0.00 0.00 0.00 0.00 0.00 0.00 0.00 0.00 0.00 0.00 0.00 0.00 0.00 0.00 0.00 0.00 0.00 0.00 0.00 0.00 0.00 0.00 0.00 0.00 0.00 0.00
0.00 0.00 0.00 0.00 0.00 0.00 0.00 0.00 0.00 0.00 0.00 0.00 0.00 0.00 0.00 0.00 0.00 0.00 0.00 0.00 0.00 0.00 0.00 0.00 0.00 0.00 0.00 0.00 0.00 0.00 0.00 0.00 0.00 0.00 0.00 0.00 0.00 0.00 0.00 0.00 0.00 0.00 0.00 0.00 0.00
0.00 0.00 0.00 0.00 0.00 0.00 0.00 0.00 0.00 0.00 0.00 0.00 0.00 0.00 0.00 0.00 0.00 0.00 0.00 0.00 0.00 0.00 0.00 0.00 0.00 0.00 0.00 0.00 0.00 0.00 0.00 0.00 0.00 0.00 0.00 0.00 0.00 0.00 0.00 0.00 0.00 0.00 0.00 0.00 0.00
0.00 0.00 0.00 0.00 0.00 0.00 0.00 0.00 0.00 0.00 0.00 0.00 0.00 0.00 0.00 0.00 0.00 0.00 0.00 0.00 0.00 0.00 0.00 0.00 0.00 0.00 0.00 0.00 0.00 0.00 0.00 0.00 0.00 0.00 0.00 0.00 0.00 0.00 0.00 0.00 0.00 0.00 0.00 0.00 0.00
0.00 0.00 0.00 0.00 0.00 0.00 0.00 0.00 0.00 0.00 0.00 0.00 0.00 0.00 0.00 0.00 0.00 0.00 0.00 0.00 0.00 0.00 0.00 0.00 0.00 0.00 0.00 0.00 0.00 0.00 0.00 0.00 0.00 0.00 0.00 0.00 0.00 0.00 0.00 0.00 0.00 0.00 0.00 0.00 0.00
0.00 0.00 0.00 0.00 0.00 0.00 0.00 0.00 0.00 0.00 0.00 0.00 0.00 0.00 0.00 0.00 0.00 0.00 0.00 0.00 0.00 0.00 0.00 0.00 0.00 0.00 0.00 0.00 0.00 0.00 0.00 0.00 0.00 0.00 0.00 0.00 0.00 0.00 0.00 0.00 0.00 0.00 0.00 0.00 0.00
0.00 0.00 0.00 0.00 0.00 0.00 0.00 0.00 0.00 0.00 0.00 0.00 0.00 0.00 0.00 0.00 0.00 0.00 0.00 0.00 0.00 0.00 0.00 0.00 0.00 0.00 0.00 0.00 0.00 0.00 0.00 0.00 0.00 0.00 0.00 0.00 0.00 0.00 0.00 0.00 0.00 0.00 0.00 0.00 0.00
0.00 0.00 0.00 0.00 0.00 0.00 0.00 0.00 0.00 0.00 0.00 0.00 0.00 0.00 0.00 0.00 0.00 0.00 0.00 0.00 0.00 0.00 0.00 0.00 0.00 0.00 0.00 0.00 0.00 0.00 0.00 0.00 0.00 0.00 0.00 0.00 0.00 0.00 0.00 0.00 0.00 0.01 0.03 0.02 0.02
0.00 0.00 0.00 0.00 0.00 0.00 0.00 0.00 0.00 0.00 0.00 0.00 0.00 0.00 0.00 0.00 0.00 0.00 0.00 0.00 0.00 0.00 0.00 0.00 0.00 0.00 0.00 0.00 0.00 0.00 0.00 0.00 0.00 0.00 0.00 0.00 0.00 0.00 0.01 0.03 0.04 0.04 0.08 0.08 0.05
MSLP
1016.38 1016.08 1015.87 1015.55 1015.09 1014.77 1014.45 1014.24 1013.96 1013.44 1013.07 1012.61 1012.06 1011.79 1011.50 1011.05 1010.27 1010.11 1009.11 1007.89 1007.93 1008.54 1008.96 1009.45 1009.46 1009.44 1009.71 1010.47 1010.78 1010.86 1011.52 1012.10 1011.76 1011.43 1011.26 1010.64 1010.72 1011.11 1011.24 1011.93 1012.11 1012.54 1013.18 1013.85 1014.95
1016.24 1015.87 1015.63 1015.36 1015.01 1014.66 1014.35 1014.01 1013.67 1013.34 1012.84 1012.42 1012.06 1011.65 1011.41 1011.05 1010.47 1009.34 1007.71 1007.58 1007.92 1008.38 1009.00 1009.16 1009.56 1009.77 1010.09 1010.86 1010.94 1010.95 1011.59 1011.61 1011.59 1011.54 1011.57 1011.18 1010.97 1011.23 1011.66 1012.09 1012.70 1013.30 1013.77 1014.41 1015.06
1016.29 1015.87 1015.50 1015.22 1014.92 1014.55 1014.22 1013.88 1013.50 1013.24 1012.83 1012.22 1011.86 1011.53 1011.20 1011.00 1010.29 1008.57 1007.70 1007.70 1008.09 1008.26 1008.61 1008.89 1009.21 1009.65 1010.18 1010.89 1011.18 1011.29 1011.32 1011.31 1011.62 1011.40 1011.43 1011.23 1011.08 1011.14 1011.80 1012.30 1012.55 1013.07 1014.01 1014.65 1015.34
1016.04 1015.69 1015.34 1014.98 1014.63 1014.29 1013.97 1013.55 1013.29 1013.01 1012.65 1012.10 1011.77 1011.42 1011.03 1010.81 1009.74 1008.27 1007.89 1007.96 1008.40 1008.49 1008.76 1008.92 1009.13 1009.62 1010.02 1010.66 1010.83 1011.06 1011.39 1011.46 1011.67 1011.60 1011.45 1011.30 1011.39 1011.35 1011.67 1011.68 1012.12 1013.00 1013.76 1014.61 1015.26
1015.93 1015.53 1015.21 1014.78 1014.33 1014.00 1013.69 1013.35 1013.01 1012.76 1012.47 1012.08 1011.68 1011.34 1010.99 1010.27 1008.76 1008.15 1008.14 1008.20 1008.59 1008.63 1008.65 1008.63 1008.83 1009.02 1009.37 1009.58 1010.27 1010.70 1011.32 1011.46 1011.35 1011.29 1011.31 1011.31 1011.26 1011.28 1011.38 1011.69 1012.48 1013.33 1013.89 1014.47 1015.02
1015.74 1015.32 1014.90 1014.47 1014.03 1013.62 1013.32 1013.06 1012.76 1012.45 1012.14 1011.96 1011.59 1011.35 1010.99 1009.53 1007.92 1008.03 1008.32 1008.68 1008.74 1008.79 1008.66 1008.63 1008.37 1008.47 1008.91 1009.18 1009.68 1010.33 1011.23 1011.27 1011.08 1010.95 1011.24 1010.92 1010.73 1010.87 1011.12 1011.85 1012.80 1013.44 1014.02 1014.29 1014.74
1015.57 1015.04 1014.57 1014.18 1013.73 1013.31 1012.97 1012.68 1012.30 1012.02 1011.93 1011.79 1011.59 1011.38 1010.49 1008.82 1007.82 1007.97 1008.33 1008.49 1008.64 1008.73 1008.67 1008.45 1008.31 1008.42 1008.62 1009.03 1009.54 1010.30 1010.97 1011.43 1011.52 1011.40 1011.24 1011.05 1010.75 1010.53 1011.07 1011.76 1012.77 1013.62 1013.92 1014.38 1014.66
1015.47 1014.92 1014.37 1013.83 1013.41 1013.07 1012.71 1012.46 1012.01 1011.49 1011.41 1011.50 1011.52 1011.23 1009.67 1007.97 1007.97 1008.09 1008.18 1008.30 1008.40 1008.51 1008.57 1008.26 1008.26 1008.49 1008.85 1009.21 1009.94 1010.37 1010.95 1011.49 1011.36 1011.52 1011.49 1011.72 1010.72 1010.52 1011.15 1011.65 1012.62 1013.39 1013.70 1013.99 1014.43
1015.32 1014.72 1014.15 1013.62 1013.12 1012.57 1012.13 1012.05 1011.54 1011.29 1011.32 1011.34 1011.48 1010.89 1008.94 1007.64 1007.84 1007.63 1007.73 1007.96 1008.05 1008.16 1008.35 1008.34 1008.57 1009.17 1009.33 1009.77 1010.51 1010.71 1011.22 1011.64 1011.49 1011.72 1011.56 1011.63 1010.90 1010.56 1010.90 1011.50 1012.38 1013.01 1013.37 1013.57 1013.95
1015.17 1014.51 1013.89 1013.24 1012.73 1012.30 1011.64 1011.55 1011.33 1011.42 1011.50 1011.35 1011.04 1010.59 1008.67 1008.26 1007.87 1007.56 1007.53 1007.60 1007.96 1008.17 1008.43 1008.71 1009.42 1009.96 1010.44 1010.49 1010.94 1010.99 1011.20 1011.34 1011.18 1011.18 1011.64 1011.40 1010.96 1010.94 1010.92 1011.16 1011.81 1012.42 1012.89 1013.22 1013.34
1015.09 1014.42 1013.77 1013.04 1012.41 1012.03 1011.30 1011.21 1011.94 1011.65 1011.15 1011.15 1010.86 1010.23 1009.27 1008.41 1007.93 1007.65 1007.66 1007.81 1008.14 1008.67 1009.41 1009.84 1010.47 1010.92 1010.93 1010.77 1010.69 1010.67 1010.89 1011.13 1010.66 1010.29 1010.84 1010.74 1010.40 1010.45 1010.93 1011.37 1011.59 1011.80 1012.21 1012.53 1012.63
1015.03 1014.38 1013.64 1012.98 1012.34 1011.93 1011.85 1012.30 1012.78 1012.76 1011.77 1010.47 1010.15 1009.73 1009.05 1008.62 1008.29 1007.86 1007.72 1008.31 1008.79 1009.60 1009.91 1010.56 1010.96 1010.89 1010.76 1010.67 1010.52 1010.40 1010.43 1010.64 1010.32 1010.03 1010.43 1009.97 1009.97 1010.06 1010.27 1010.08 1010.36 1010.66 1011.15 1011.57 1012.14
1014.91 1014.33 1013.55 1012.79 1012.13 1012.04 1012.49 1012.26 1012.10 1012.13 1012.00 1010.42 1009.61 1009.11 1008.68 1008.69 1008.55 1008.23 1008.16 1008.66 1009.31 1009.96 1010.54 1010.95 1011.02 1010.74 1010.54 1010.59 1010.66 1010.74 1010.71 1010.81 1010.83 1010.14 1009.66 1009.91 1010.07 1010.03 1009.86 1010.03 1010.41 1010.52 1010.56 1010.81 1011.18
1014.91 1014.29 1013.61 1012.89 1012.40 1012.89 1012.44 1011.86 1011.67 1011.48 1011.90 1010.78 1009.62 1008.90 1008.66 1008.74 1009.02 1008.65 1008.58 1008.97 1009.83 1010.62 1011.11 1011.31 1010.97 1010.78 1010.81 1010.87 1010.90 1011.01 1010.65 1010.85 1010.94 1011.17 1010.99 1010.55 1011.02 1010.19 1009.80 1009.61 1009.71 1009.64 1009.82 1010.01 1010.42
1014.78 1014.28 1013.77 1013.47 1013.18 1012.75 1012.21 1011.68 1011.37 1011.35 1012.06 1010.82 1009.80 1009.22 1009.57 1009.89 1010.28 1009.73 1009.39 1009.22 1010.45 1011.22 1011.76 1012.07 1011.64 1011.46 1011.45 1011.57 1011.30 1011.43 1011.06 1011.15 1011.21 1011.59 1011.77 1011.28 1011.40 1009.96 1009.58 1009.80 1009.08 1008.55 1008.58 1008.80 1009.04
1014.55 1014.12 1013.81 1013.42 1013.25 1012.01 1011.62 1011.50 1011.49 1012.27 1011.93 1011.08 1010.66 1010.70 1010.91 1011.29 1011.30 1011.08 1010.54 1010.35 1011.51 1012.15 1012.57 1012.90 1012.49 1012.46 1012.23 1011.88 1011.84 1011.68 1011.63 1011.92 1012.22 1012.60 1012.45 1011.60 1011.40 1010.12 1009.48 1008.10 1007.69 1007.48 1007.35 1007.24 1007.59
1014.02 1013.66 1013.75 1013.07 1012.27 1011.63 1011.52 1011.89 1012.84 1012.93 1012.42 1012.26 1012.11 1012.11 1012.44 1013.10 1013.06 1012.94 1013.02 1013.13 1013.74 1014.16 1014.93 1014.13 1013.82 1013.24 1012.82 1012.49 1012.29 1012.56 1013.17 1013.64 1013.99 1013.99 1013.20 1012.07 1011.44 1009.54 1007.70 1007.20 1006.88 1006.38 1006.22 1006.07 1006.46
1013.38 1012.83 1012.85 1012.21 1011.81 1011.60 1012.09 1013.01 1013.23 1012.93 1012.59 1012.52 1012.82 1013.08 1013.88 1014.19 1014.36 1014.23 1014.51 1014.91 1014.88 1015.12 1016.02 1015.94 1015.01 1014.31 1013.99 1013.81 1013.84 1013.91 1014.35 1015.10 1015.34 1015.41 1014.27 1012.62 1010.79 1008.37 1006.97 1006.15 1005.68 1005.38 1004.97 1005.05 1005.63
1012.80 1012.83 1012.86 1011.66 1011.57 1011.90 1012.79 1013.64 1013.36 1012.88 1012.37 1012.64 1013.25 1013.99 1014.76 1014.69 1014.85 1015.15 1015.54 1015.80 1015.92 1015.70 1016.21 1016.60 1015.98 1015.06 1014.49 1014.19 1014.39 1014.48 1015.06 1015.52 1015.93 1016.12 1015.45 1013.24 1010.67 1008.57 1006.83 1006.10 1005.46 1004.81 1004.57 1004.24 1004.26
1013.56 1013.28 1012.58 1011.58 1011.59 1011.99 1013.15 1013.76 1013.22 1012.49 1012.27 1012.62 1013.66 1014.55 1015.42 1015.67 1015.68 1015.81 1016.16 1016.43 1016.25 1016.07 1016.12 1016.97 1017.03 1016.24 1015.41 1014.85 1014.88 1015.21 1015.49 1016.12 1016.98 1017.42 1016.66 1014.18 1011.86 1009.75 1008.01 1007.17 1006.51 1005.46 1004.72 1004.00 1003.53
1013.75 1013.36 1012.29 1011.68 1011.90 1012.89 1013.86 1013.68 1012.93 1012.18 1012.06 1012.85 1013.78 1014.83 1015.61 1016.00 1016.16 1016.41 1016.66 1016.92 1016.63 1016.55 1016.53 1017.38 1018.00 1017.48 1016.64 1016.36 1016.32 1016.21 1016.22 1016.93 1017.73 1018.02 1017.57 1015.90 1013.06 1009.96 1009.27 1008.69 1007.76 1006.47 1005.30 1004.04 1002.95
1014.29 1013.99 1012.21 1012.03 1013.09 1014.54 1014.35 1013.40 1012.67 1012.46 1012.37 1012.96 1013.73 1014.65 1015.53 1016.07 1016.49 1016.61 1016.83 1016.77 1016.72 1016.81 1017.42 1018.17 1019.03 1019.07 1018.19 1017.16 1016.88 1016.71 1017.07 1017.74 1018.72 1018.70 1018.15 1016.68 1012.79 1010.11 1009.70 1009.06 1008.61 1007.38 1006.21 1004.80 1002.96
1015.25 1014.55 1012.41 1012.24 1014.10 1015.03 1014.26 1013.41 1012.73 1012.60 1012.86 1013.41 1014.20 1014.59 1015.39 1016.26 1016.91 1016.93 1016.96 1016.97 1016.91 1017.09 1017.55 1018.23 1019.72 1020.08 1019.18 1018.36 1017.67 1017.48 1017.55 1017.91 1018.59 1018.90 1018.36 1017.20 1013.03 1010.86 1010.12 1009.60 1009.21 1008.51 1006.71 1005.82 1004.29
1015.86 1015.62 1014.53 1014.34 1015.37 1015.19 1014.82 1013.98 1013.29 1012.88 1013.27 1013.69 1014.57 1015.01 1015.89 1016.70 1017.00 1017.32 1017.35 1017.24 1017.29 1017.35 1017.66 1018.37 1019.88 1020.24 1020.12 1019.18 1018.59 1018.50 1018.10 1018.04 1018.23 1018.73 1017.90 1016.03 1013.20 1012.72 1011.50 1011.29 1009.77 1008.80 1007.84 1006.88 1006.12
1016.52 1017.48 1017.10 1016.76 1016.45 1016.02 1015.41 1014.64 1013.97 1013.68 1013.79 1014.19 1015.09 1015.45 1016.14 1017.10 1017.49 1017.70 1017.90 1017.91 1017.82 1017.93 1018.45 1019.32 1020.46 1020.67 1020.16 1019.41 1018.96 1018.42 1018.05 1017.82 1017.68 1017.29 1017.11 1015.35 1013.64 1012.81 1012.54 1011.89 1010.83 1009.97 1008.73 1007.60 1007.38
1017.53 1018.02 1017.59 1017.46 1017.02 1016.46 1016.15 1015.56 1014.78 1014.45 1014.46 1014.91 1015.40 1016.02 1016.30 1016.96 1017.26 1017.77 1018.29 1018.70 1018.65 1018.98 1019.48 1020.32 1020.79 1020.97 1020.53 1019.40 1018.88 1018.29 1017.68 1016.87 1016.48 1016.14 1015.34 1014.70 1013.57 1012.71 1012.35 1012.06 1011.25 1010.14 1009.56 1008.47 1008.03
1018.10 1018.06 1017.99 1018.31 1017.78 1017.36 1016.91 1016.03 1015.16 1014.70 1014.96 1014.90 1015.48 1016.23 1016.70 1016.74 1017.12 1017.54 1018.03 1018.70 1019.07 1019.55 1020.43 1021.09 1021.56 1021.83 1021.07 1019.79 1019.03 1018.04 1016.46 1015.70 1015.19 1014.34 1014.05 1013.87 1013.02 1012.59 1012.14 1012.00 1011.18 1010.11 1010.20 1009.47 1008.72
Thickness
5728 5733 5737 5742 5747 5752 5756 5760 5765 5771 5775 5779 5784 5787 5790 5795 5803 5805 5806 5820 5820 5817 5816 5811 5810 5810 5808 5796 5797 5795 5765 5752 5765 5768 5768 5789 5780 5784 5786 5771 5778 5778 5770 5768 5762
5727 5733 5738 5743 5747 5752 5756 5761 5766 5771 5777 5781 5784 5788 5791 5795 5799 5803 5824 5826 5824 5819 5811 5805 5798 5803 5793 5789 5792 5786 5765 5767 5779 5778 5771 5780 5783 5779 5773 5768 5767 5767 5771 5769 5764
5725 5731 5737 5742 5747 5752 5757 5762 5766 5771 5776 5782 5785 5789 5792 5795 5798 5808 5824 5824 5823 5823 5818 5815 5808 5803 5789 5789 5787 5780 5769 5783 5781 5787 5786 5783 5782 5789 5773 5762 5770 5769 5765 5766 5763
5725 5731 5736 5742 5748 5753 5758 5764 5768 5772 5777 5782 5786 5789 5793 5796 5771 5813 5822 5822 5820 5819 5814 5806 5803 5791 5785 5779 5791 5778 5784 5784 5782 5787 5788 5784 5787 5781 5780 5781 5786 5781 5776 5769 5765
5726 5731 5736 5742 5748 5753 5759 5764 5769 5773 5777 5781 5786 5789 5793 5790 5795 5817 5819 5819 5818 5816 5809 5805 5798 5797 5787 5795 5792 5785 5784 5788 5791 5794 5791 5793 5787 5786 5784 5789 5787 5782 5780 5773 5770
5727 5732 5737 5743 5749 5755 5760 5764 5769 5774 5778 5780 5785 5788 5789 5781 5817 5818 5816 5814 5811 5810 5807 5806 5804 5807 5796 5796 5792 5793 5785 5787 5787 5795 5792 5791 5795 5796 5793 5791 5781 5779 5776 5777 5775
5729 5735 5740 5745 5750 5756 5761 5766 5771 5775 5777 5780 5783 5786 5785 5791 5818 5816 5815 5811 5812 5808 5802 5811 5814 5804 5801 5791 5802 5793 5779 5781 5781 5782 5786 5797 5787 5790 5795 5791 5779 5773 5777 5777 5777
5729 5735 5741 5747 5752 5756 5761 5765 5771 5777 5779 5780 5781 5783 5780 5813 5814 5812 5813 5809 5812 5812 5809 5815 5816 5805 5798 5801 5789 5781 5778 5758 5780 5782 5787 5785 5770 5796 5796 5789 5779 5776 5779 5780 5779
5728 5735 5741 5747 5753 5759 5764 5766 5772 5776 5777 5778 5778 5779 5779 5812 5804 5813 5815 5805 5809 5810 5810 5814 5807 5790 5790 5771 5758 5770 5751 5754 5767 5780 5780 5778 5772 5791 5799 5793 5780 5778 5781 5783 5782
5727 5734 5741 5748 5754 5759 5766 5768 5770 5771 5772 5774 5777 5770 5789 5783 5799 5808 5813 5811 5801 5800 5795 5792 5779 5765 5759 5753 5733 5748 5751 5762 5762 5776 5771 5771 5774 5783 5793 5795 5788 5784 5784 5784 5784
5726 5733 5740 5747 5753 5758 5766 5767 5756 5757 5767 5762 5764 5766 5775 5791 5802 5798 5804 5800 5795 5782 5763 5770 5752 5740 5753 5759 5767 5764 5758 5752 5768 5789 5775 5775 5783 5783 5789 5788 5787 5789 5787 5787 5789
5724 5731 5738 5745 5751 5756 5757 5750 5746 5750 5741 5766 5766 5767 5777 5785 5774 5787 5800 5777 5771 5753 5763 5750 5739 5756 5761 5761 5760 5764 5757 5752 5765 5785 5777 5782 5782 5789 5792 5795 5796 5797 5795 5794 5791
5722 5728 5736 5744 5750 5752 5747 5748 5753 5754 5732 5750 5766 5767 5771 5778 5767 5772 5784 5774 5760 5752 5748 5737 5750 5760 5757 5751 5748 5746 5747 5751 5752 5767 5785 5785 5774 5783 5792 5796 5794 5798 5803 5801 5798
5720 5726 5732 5740 5743 5740 5743 5751 5753 5755 5708 5732 5751 5763 5771 5771 5758 5780 5782 5771 5755 5743 5741 5741 5752 5751 5745 5744 5745 5734 5757 5758 5753 5747 5732 5776 5732 5772 5785 5790 5795 5798 5802 5804 5803
5718 5723 5729 5732 5734 5734 5744 5749 5752 5747 5674 5738 5746 5769 5759 5752 5750 5757 5774 5770 5745 5743 5738 5731 5738 5737 5733 5734 5746 5731 5752 5750 5754 5743 5742 5753 5738 5764 5781 5778 5793 5806 5808 5812 5813
5717 5721 5725 5729 5731 5741 5746 5748 5744 5697 5684 5725 5734 5729 5735 5733 5737 5746 5751 5758 5748 5732 5729 5726 5735 5730 5732 5737 5739 5743 5742 5733 5729 5722 5709 5742 5738 5752 5764 5793 5803 5810 5818 5822 5821
5718 5722 5722 5728 5733 5741 5743 5734 5691 5677 5714 5710 5713 5717 5712 5711 5716 5719 5714 5708 5701 5697 5685 5702 5710 5721 5728 5717 5725 5716 5701 5679 5691 5697 5699 5734 5729 5752 5795 5804 5809 5811 5818 5825 5825
5719 5725 5725 5731 5735 5737 5731 5705 5684 5698 5702 5714 5711 5705 5698 5700 5701 5703 5701 5690 5701 5692 5670 5671 5675 5700 5713 5710 5702 5698 5692 5666 5673 5669 5692 5713 5719 5755 5799 5814 5821 5824 5830 5832 5828
5719 5720 5721 5731 5733 5730 5710 5675 5680 5693 5709 5703 5699 5685 5682 5690 5694 5689 5683 5683 5688 5693 5672 5662 5670 5697 5707 5707 5704 5694 5676 5691 5677 5675 5667 5693 5730 5765 5793 5802 5812 5817 5822 5827 5835
5705 5709 5714 5726 5727 5719 5690 5679 5691 5704 5706 5701 5681 5682 5669 5672 5675 5674 5672 5678 5681 5690 5688 5675 5655 5679 5688 5695 5695 5690 5690 5666 5651 5658 5660 5675 5702 5717 5760 5771 5787 5802 5812 5824 5836
5701 5700 5712 5719 5717 5695 5675 5677 5692 5707 5707 5692 5679 5670 5668 5668 5668 5662 5662 5667 5672 5674 5675 5667 5651 5662 5675 5671 5663 5656 5661 5658 5651 5642 5640 5637 5675 5728 5745 5749 5764 5787 5805 5819 5833
5686 5682 5709 5710 5683 5655 5673 5685 5698 5697 5699 5692 5684 5676 5668 5665 5661 5660 5655 5659 5664 5666 5656 5653 5628 5632 5653 5665 5663 5663 5658 5640 5626 5634 5633 5634 5666 5735 5731 5743 5756 5774 5791 5805 5832
5669 5670 5699 5702 5662 5658 5672 5687 5693 5691 5688 5683 5676 5678 5671 5659 5648 5654 5653 5658 5658 5657 5650 5648 5620 5607 5624 5639 5649 5646 5652 5648 5630 5616 5624 5627 5667 5721 5725 5728 5739 5753 5778 5790 5809
5661 5659 5668 5670 5653 5663 5666 5673 5676 5685 5678 5674 5668 5669 5658 5649 5640 5640 5644 5650 5649 5650 5650 5637 5610 5615 5603 5621 5630 5626 5633 5635 5627 5608 5618 5635 5668 5679 5700 5698 5725 5744 5760 5773 5783
5645 5638 5642 5640 5648 5651 5653 5661 5665 5664 5669 5664 5658 5657 5647 5634 5632 5631 5630 5631 5636 5638 5629 5620 5606 5603 5609 5616 5618 5620 5623 5625 5621 5620 5613 5645 5661 5674 5673 5682 5700 5722 5742 5759 5764
5634 5632 5631 5631 5634 5647 5637 5645 5651 5655 5657 5651 5644 5643 5640 5626 5627 5619 5621 5616 5618 5619 5613 5597 5593 5596 5603 5610 5608 5610 5617 5626 5628 5630 5633 5638 5645 5669 5673 5673 5685 5705 5721 5739 5747
5622 5624 5627 5619 5626 5631 5630 5638 5646 5651 5648 5648 5639 5630 5627 5628 5627 5626 5618 5610 5612 5608 5594 5591 5580 5573 5580 5597 5597 5591 5609 5618 5623 5641 5640 5630 5647 5657 5663 5662 5671 5689 5703 5716 5729